Location: Peterborough
(44.3091°N, 78.3197°W)
Time: 16:19:06
(UTC-04:00)

Transit 4A - Pass Details

Date: 25 March 2023
Orbit: 864 x 980 km, 66.8° (Epoch: 04 June)

Event Time Altitude Azimuth Distance (km) Brightness Sun altitude
Rises 08:47:36 0° 241° (WSW) 3,438 10.5 16.9°
Reaches altitude 10° 08:50:19 10° 251° (WSW) 2,510 9.7 17.4°
Maximum altitude 08:55:29 33° 314° (NW) 1,443 8.7 18.3°
Drops below altitude 10° 09:00:48 10° 18° (NNE) 2,569 10.3 19.2°
Sets 09:03:37 0° 28° (NNE) 3,531 11.1 19.7°
